TimeCDT,TemperatureF,Dew PointF,Humidity,Sea Level PressureIn,VisibilityMPH,Wind Direction,Wind SpeedMPH,Gust SpeedMPH,PrecipitationIn,Events,Conditions,WindDirDegrees,DateUTC
12:53 AM,36.0,30.0,79,30.02,8.0,Calm,Calm,-,N/A,,Clear,0,2012-11-01 05:53:00
1:53 AM,36.0,30.9,82,30.01,8.0,Calm,Calm,-,N/A,,Clear,0,2012-11-01 06:53:00
2:53 AM,39.9,35.1,83,30.00,7.0,Calm,Calm,-,N/A,,Clear,0,2012-11-01 07:53:00
3:53 AM,41.0,35.1,79,29.99,6.0,Calm,Calm,-,N/A,,Haze,0,2012-11-01 08:53:00
4:53 AM,42.1,35.1,76,29.99,7.0,Calm,Calm,-,N/A,,Clear,0,2012-11-01 09:53:00
5:53 AM,39.0,34.0,82,30.00,6.0,Calm,Calm,-,N/A,,Haze,0,2012-11-01 10:53:00
7:53 AM,35.1,32.0,89,30.00,5.0,Calm,Calm,-,N/A,,Clear,0,2012-11-01 12:53:00
8:53 AM,41.0,36.0,82,30.01,6.0,Calm,Calm,-,N/A,,Haze,0,2012-11-01 13:53:00
9:53 AM,48.0,37.0,66,29.99,10.0,South,4.6,-,N/A,,Clear,170,2012-11-01 14:53:00
10:53 AM,57.0,37.9,49,29.96,10.0,SSE,6.9,-,N/A,,Clear,160,2012-11-01 15:53:00
11:53 AM,64.0,39.0,40,29.94,10.0,SW,8.1,-,N/A,,Clear,230,2012-11-01 16:53:00
12:53 PM,66.9,39.9,37,29.92,10.0,WNW,16.1,-,N/A,,Clear,290,2012-11-01 17:53:00
1:53 PM,66.9,39.9,37,29.91,10.0,NW,16.1,-,N/A,,Clear,320,2012-11-01 18:53:00
2:53 PM,66.9,39.9,37,29.91,10.0,NNW,11.5,-,N/A,,Clear,330,2012-11-01 19:53:00
4:53 PM,68.0,39.9,36,29.90,10.0,North,10.4,-,N/A,,Clear,350,2012-11-01 21:53:00
5:53 PM,64.0,39.0,40,29.91,10.0,NNW,9.2,-,N/A,,Clear,340,2012-11-01 22:53:00
6:53 PM,53.1,37.9,57,29.94,10.0,North,8.1,-,N/A,,Clear,10,2012-11-01 23:53:00
7:53 PM,53.1,37.9,57,29.95,10.0,North,9.2,-,N/A,,Clear,360,2012-11-02 00:53:00
8:53 PM,50.0,39.0,66,29.96,10.0,North,6.9,-,N/A,,Clear,360,2012-11-02 01:53:00
9:53 PM,50.0,39.0,66,29.97,10.0,NNE,9.2,-,N/A,,Clear,20,2012-11-02 02:53:00
10:53 PM,48.0,39.0,71,29.97,9.0,NNE,6.9,-,N/A,,Clear,20,2012-11-02 03:53:00
11:53 PM,46.9,37.9,71,29.98,9.0,NNE,5.8,-,N/A,,Clear,20,2012-11-02 04:53:00